Back to catalog

FLOCK 4H 2

AliveScienceSSO
NORAD 66705·PAYLOAD·🇺🇸 United States

Launched Nov 28, 2025 from Vandenberg Space Force Base

Loading…

Next Passes (next 24 hours)

TLE

FreshSource: CelesTrak SupGP

Epoch: Sep 14, 2026, 12:45 UTC

1 66705C 25276AR  26257.53136574  .00007549  00000+0  33330-3 0  2578
2 66705  97.4099 329.8996 0002181  62.5691 211.9539 15.21813988    18

Track FLOCK 4H 2 in real time with AllMySat

Download on the App Store